Regional Weather Roundup
Issued by NWS Northern Indiana

Home | Current Version | Previous Version | Text Only | Print | Product List | Glossary On
Versions: 1 2 3 4 5 6 7 8 9 10 11 12 13 14 15 16 17 18 19 20 21 22 23 24 25 26 27 28 29 30 31 32 33 34 35 36 37 38 39 40 41 42 43 44 45 46 47 48 49 50
000
ASUS43 KIWX 301110
RWRIWX

KIWX WEATHER ROUNDUP
NATIONAL WEATHER SERVICE NORTHERN INDIANA
700 AM EDT WED JUL 30 2014

NOTE: "FAIR" INDICATES FEW OR NO CLOUDS BELOW 12,000 FEET WITH NO
SIGNIFICANT WEATHER AND/OR OBSTRUCTIONS TO VISIBILITY.

* THESE STATIONS ARE NOT UNDER NWS QUALITY CONTROL. THEY ALSO MAY NOT
  REPORT WEATHER SUCH AS PRECIPITATION OR FOG.

INZ001>027-301200-
NORTHERN INDIANA

CITY           SKY/WX    TMP DP  RH WIND       PRES   REMARKS
GARY*          MOCLDY    59  55  88 W6        30.03R
VALPARAISO     MOCLDY    59  55  87 NW5       30.03R
MICHIGAN CITY* FOG       54  54 100 CALM      30.03R VSB<1/4
LAPORTE*       FOG       52  52 100 CALM      30.03R VSB 1/2
KNOX*            N/A     51  49  93 CALM      30.02R VSB 1/4
SOUTH BEND     CLEAR     56  53  90 CALM      30.03R
ELKHART*       FOG       55  55 100 CALM      30.02  VSB 1/2
GOSHEN         PTCLDY    57  55  93 W3        30.02R FOG
MONTICELLO*    MOCLDY    57  56  97 W3        30.03R
LOGANSPORT*    MOCLDY    54  54 100 SW3       30.04R FOG
ROCHESTER*     CLEAR     55  55 100 CALM      30.03S FOG
WARSAW*        PTCLDY    55  55 100 W3        30.03R FOG
ANGOLA*        CLEAR     57  48  72 W5        30.02R
FORT WAYNE     MOCLDY    59  57  93 SW6       30.02R FOG
HUNTINGTON*    MOCLDY    58  56  96 CALM      30.02R
PERU/GRISSOM   MOCLDY    56  56 100 W6        30.03R FOG
MARION*        CLEAR     54  53  97 W3        30.04R FOG

$$
INZ028>050-301200-
CENTRAL INDIANA

CITY           SKY/WX    TMP DP  RH WIND       PRES   REMARKS
LAFAYETTE      CLOUDY    58  57  97 CALM      30.04R
KOKOMO*        PTCLDY    57  55  94 W6        30.03S
MUNCIE*        CLEAR     59  56  89 SW8       30.04R
INDIANAPOLIS   PTCLDY    57  56  96 W7        30.04R

$$
MIZ043>046-050>051-056>058-064>065-071>073-077>080-301200-
SOUTHWEST LOWER MICHIGAN

CITY           SKY/WX    TMP DP  RH WIND       PRES   REMARKS
BATTLE CREEK   PTCLDY    57  54  89 SW5       30.01R
BENTON HARBOR  PTCLDY    53  52  96 CALM      30.01S FOG
COLDWATER*     CLEAR     56  55  97 SW5       30.01R FOG
HILLSDALE*     CLEAR     54  54 100 CALM      30.01R FOG
HOLLAND        PTCLDY    57  54  89 SW3       30.01R
GRAND RAPIDS   PTCLDY    56  55  97 W3        30.00R
KALAMAZOO      MOCLDY    57  55  93 CALM      30.02R FOG
STURGIS*       CLEAR     57  57 100 W5        30.01S
THREE RIVERS*  FAIR      57  57 100 CALM      30.02S FOG

$$
OHZ001>008-015>018-024>025-301200-
NORTHWEST OHIO

CITY           SKY/WX    TMP DP  RH WIND       PRES   REMARKS
WAUSEON*       MOCLDY    55  55 100 MISG      30.00R FOG
DEFIANCE       CLOUDY    60  58  92 CALM      30.01R
FINDLAY        CLOUDY    58  56  93 S3        30.01R FOG
TOLEDO EXPRESS MOCLDY    56  55  97 CALM      30.00R FOG
TOLEDO METCALF CLOUDY    59  55  87 SW5       30.00S
LIMA           PTCLDY    57  55  93 S5        30.02S FOG

$$
&&



USA.gov is the U.S. government's official web portal to all federal, state and local government web resources and services.